Location: Unspecified
(0.0000°N, 0.0000°E)
Time: 20:52:39
(UTC+00:00)

deb Delta 104 - Visible Passes

Search period start: 26 February 2024 00:00
Search period end: 07 March 2024 00:00
Orbit: 1326 x 1526 km, 101.0° (Epoch: 26 February)

Date Brightness Start Highest point End Pass type
(mag) Time Alt. Az. Time Alt. Az. Time Alt. Az.
26 Feb ? 05:33:25 10° SSE 05:41:30 57° ENE 05:49:13 10° N visible
26 Feb ? 19:55:16 10° WNW 19:55:46 10° WNW 19:56:17 10° WNW visible
27 Feb ? 04:31:39 10° ESE 04:35:49 15° ENE 04:39:53 10° NE visible
27 Feb ? 18:42:37 10° N 18:50:09 43° WNW 18:58:02 10° SW visible
28 Feb ? 05:14:41 10° SE 05:22:13 40° ENE 05:29:24 10° N visible
28 Feb ? 19:31:45 10° NW 19:36:32 17° WNW 19:41:27 10° WSW visible
29 Feb ? 18:22:52 10° N 18:30:51 61° WNW 18:39:14 10° SSW visible
01 Mar ? 04:56:19 10° SE 05:02:53 27° ENE 05:09:14 10° NNE visible
01 Mar ? 19:10:54 10° NNW 19:17:16 25° WNW 19:23:52 10° SW visible
02 Mar ? 05:41:10 10° SSE 05:49:18 66° ENE 05:57:06 10° N visible
03 Mar ? 04:38:32 10° ESE 04:43:36 18° ENE 04:48:32 10° NE visible
03 Mar ? 18:50:39 10° N 18:57:59 37° WNW 19:05:37 10° SW visible
04 Mar ? 05:22:17 10° SE 05:29:59 46° ENE 05:37:23 10° N visible
04 Mar ? 19:40:33 10° NW 19:44:20 14° WNW 19:48:12 10° WSW visible
05 Mar ? 04:22:23 10° E 04:24:19 11° ENE 04:26:14 10° ENE visible
05 Mar ? 18:30:46 10° N 18:38:41 52° WNW 18:46:58 10° SSW visible
06 Mar ? 05:03:42 10° SE 05:10:40 32° ENE 05:17:22 10° NNE visible
06 Mar ? 19:19:13 10° NNW 19:25:04 22° WNW 19:31:07 10° WSW visible
